Weather History for Beverly, MA

Change the Weather History Date:

Monday, October 8, 2012

  Actual Average Record
Temperature  
Mean Temperature 47 °F -  
Max Temperature 57 °F 62 °F 79 °F (2011)
Min Temperature 39 °F 41 °F 25 °F (1991)
Degree Days  
Heating Degree Days 18    
Moisture  
Dew Point 42 °F    
Average Humidity 79    
Maximum Humidity 100    
Minimum Humidity 53    
Precipitation  
Precipitation 0.05 in - - ()
Sea Level Pressure  
Sea Level Pressure 30.19 in    
Wind  
Wind Speed 2 mph (NW)    
Max Wind Speed 8 mph    
Max Gust Speed -    
Visibility 8 miles    
Events Fog    
Averages and records for this station are not official NWS values.
T = Trace of Precipitation, MM = Missing Value Source: NWS Daily Summary

Daily Weather History Graph

Daily Weather History Graph

Search for Another Location

Airport:

Trip Planner

Search our weather history database for the weather conditions in past years. The results will help you decide how hot, cold, wet, or windy it might be!

Date:

Astronomy

Oct. 08, 2012 Rise Set
Actual Time 6:49 AM EDT 6:12 PM EDT
Civil Twilight 6:20 AM EDT 6:40 PM EDT
Nautical Twilight 5:48 AM EDT 7:12 PM EDT
Astronomical Twilight 5:15 AM EDT 7:45 PM EDT
Moon No Moon Rise 2:07 PM EDT (10/8)
Length of Visible Light 12h 19m
Length of Day
11h 23m
Waning Gibbous, 46% of the Moon is Illuminated
Oct 8
Waning Gibbous
Oct 15
New
Oct 21
First Quarter
Oct 29
Full
Nov 6
Last Quarter

Hourly Weather History & Observations

Time (EDT) Temp. Windchill Dew Point Humidity Pressure Visibility Wind Dir Wind Speed Gust Speed Precip Events Conditions
12:53 AM 48.0 °F - 45.0 °F 89% 30.04 in 10.0 mi Calm Calm - 0.04 in   Overcast
1:53 AM 48.0 °F - 45.0 °F 89% 30.06 in 10.0 mi WNW 4.6 mph - 0.01 in   Overcast
2:53 AM 46.0 °F 44.8 °F 44.1 °F 93% 30.06 in 10.0 mi WNW 3.5 mph - N/A   Scattered Clouds
3:53 AM 44.1 °F - 43.0 °F 96% 30.07 in 8.0 mi Calm Calm - N/A   Clear
4:02 AM 44.6 °F - 42.8 °F 93% 30.08 in 1.8 mi Calm Calm - N/A   Clear
4:21 AM 42.8 °F 40.1 °F 41.0 °F 93% 30.09 in 3.0 mi WNW 4.6 mph - N/A   Clear
4:53 AM 43.0 °F 40.3 °F 41.0 °F 93% 30.09 in 10.0 mi WNW 4.6 mph - N/A   Clear
5:22 AM 42.8 °F - 39.2 °F 87% 30.11 in 1.8 mi Calm Calm - N/A   Clear
5:31 AM 42.8 °F - 41.0 °F 93% 30.11 in 4.0 mi Calm Calm - N/A   Clear
5:42 AM 41.0 °F - 39.2 °F 93% 30.12 in 1.5 mi Calm Calm - N/A   Clear
5:53 AM 41.0 °F 39.0 °F 39.0 °F 93% 30.12 in 1.2 mi WNW 3.5 mph - N/A   Clear
5:57 AM 41.0 °F 39.0 °F 39.2 °F 93% 30.13 in 3.0 mi NW 3.5 mph - N/A   Clear
6:45 AM 39.2 °F 37.0 °F 37.4 °F 93% 30.14 in 0.8 mi NW 3.5 mph - N/A   Clear
6:53 AM 39.9 °F 36.7 °F 37.9 °F 93% 30.13 in 0.2 mi NNW 4.6 mph - N/A Fog Fog
7:01 AM 41.0 °F 38.0 °F 39.2 °F 93% 30.14 in 0.5 mi NNW 4.6 mph - N/A Fog Fog
7:18 AM 39.2 °F 37.0 °F 39.2 °F 100% 30.14 in 5.0 mi North 3.5 mph - N/A Fog Shallow Fog
7:53 AM 44.1 °F - 42.1 °F 93% 30.16 in 10.0 mi Calm Calm - N/A   Clear
8:53 AM 48.9 °F - 44.1 °F 83% 30.19 in 10.0 mi NW 3.5 mph - N/A   Clear
9:53 AM 52.0 °F - 44.1 °F 74% 30.21 in 10.0 mi WNW 5.8 mph - N/A   Scattered Clouds
10:30 AM 51.8 °F - 42.8 °F 71% 30.21 in 10.0 mi NW 6.9 mph - N/A   Mostly Cloudy
10:53 AM 53.1 °F - 42.1 °F 66% 30.22 in 10.0 mi NW 4.6 mph - N/A   Mostly Cloudy
11:02 AM 53.6 °F - 42.8 °F 67% 30.23 in 10.0 mi NW 4.6 mph - N/A   Scattered Clouds
11:10 AM 53.6 °F - 42.8 °F 67% 30.23 in 10.0 mi NW 5.8 mph - N/A   Mostly Cloudy
11:26 AM 55.4 °F - 42.8 °F 63% 30.23 in 10.0 mi Calm Calm - N/A   Scattered Clouds
11:33 AM 53.6 °F - 42.8 °F 67% 30.23 in 10.0 mi WNW 8.1 mph - N/A   Mostly Cloudy
11:43 AM 53.6 °F - 41.0 °F 62% 30.23 in 10.0 mi Calm Calm - N/A   Scattered Clouds
11:53 AM 55.0 °F - 42.1 °F 62% 30.22 in 10.0 mi WNW 6.9 mph - N/A   Mostly Cloudy
12:01 PM 55.4 °F - 41.0 °F 58% 30.23 in 10.0 mi Variable 4.6 mph - N/A   Mostly Cloudy
12:53 PM 55.0 °F - 39.9 °F 57% 30.22 in 10.0 mi NNW 5.8 mph - N/A   Mostly Cloudy
1:53 PM 55.9 °F - 39.0 °F 53% 30.22 in 10.0 mi Calm Calm - N/A   Overcast
2:53 PM 55.0 °F - 41.0 °F 59% 30.25 in 10.0 mi NNW 3.5 mph - N/A   Overcast
3:53 PM 55.9 °F - 39.9 °F 55% 30.25 in 10.0 mi Calm Calm - N/A   Overcast
4:53 PM 54.0 °F - 42.1 °F 64% 30.25 in 10.0 mi East 3.5 mph - N/A   Mostly Cloudy
5:53 PM 53.1 °F - 44.1 °F 71% 30.26 in 10.0 mi East 3.5 mph - N/A   Clear
6:53 PM 51.1 °F - 44.1 °F 77% 30.28 in 10.0 mi East 3.5 mph - N/A   Clear
7:53 PM 51.1 °F - 44.1 °F 77% 30.29 in 10.0 mi Calm Calm - N/A   Clear
8:53 PM 48.9 °F - 44.1 °F 83% 30.29 in 10.0 mi Calm Calm - N/A   Clear
9:53 PM 48.0 °F - 44.1 °F 86% 30.30 in 10.0 mi Calm Calm - N/A   Clear
10:53 PM 48.0 °F - 45.0 °F 89% 30.30 in 10.0 mi Calm Calm - N/A   Overcast
11:53 PM 48.0 °F - 45.0 °F 89% 30.30 in 10.0 mi Calm Calm - N/A   Overcast